Murray, KY

3:37 PM CDT on September 22, 2019 (GMT -0500)
Kyle-Oakley

Weather History for KCEY - May, 2019

Change the Weather History Date:

Sunday, May 19, 2019

  Actual Average (WUND) Record (WUND)
Temperature  
Mean Temperature 71 °F -  
Max Temperature 78 °F - - (-1)
Min Temperature 64 °F - - (-1)
Cooling Degree Days 6    
Growing Degree Days 21 (Base 50)    
Moisture  
Dew Point 67 °F    
Average Humidity 92    
Maximum Humidity 100    
Minimum Humidity 69    
Precipitation  
Precipitation 0.51 in - - ()
Sea Level Pressure  
Sea Level Pressure 29.85 in    
Wind  
Wind Speed 10 mph (SSW)    
Max Wind Speed 18 mph    
Max Gust Speed 26 mph    
Visibility 9 miles    
Events      
Averages and records for this station are not official NWS values.
T = Trace of Precipitation, MM = Missing Value Source: NWS Daily Summary

Daily Weather History Graph

Daily Weather History Graph

Search for Another Location

Airport or City:

Astronomy

May. 19, 2019 Rise Set
Actual Time 5:43 AM CDT 7:57 PM CDT
Civil Twilight 5:14 AM CDT 8:26 PM CDT
Nautical Twilight 4:38 AM CDT 9:02 PM CDT
Astronomical Twilight 3:59 AM CDT 9:41 PM CDT
Moon 8:57 PM CDT (5/19) 6:27 AM CDT (5/19)
Length of Visible Light 15h 12m
Length of Day
14h 13m
Full, 99% of the Moon is Illuminated
May 19
Full
May 26
Last Quarter
Jun 3
New
Jun 10
First Quarter
Jun 17
Full

Hourly Weather History & Observations

Time (CDT) Temp. Dew Point Humidity Pressure Visibility Wind Dir Wind Speed Gust Speed Precip Events Conditions
12:15 AM 71.6 °F 66.2 °F 83% 29.86 in 10.0 mi WSW 18.4 mph 24.2 mph N/A   Overcast
12:35 AM 66.2 °F 66.2 °F 100% 29.87 in 5.0 mi WSW 15.0 mph 19.6 mph N/A   Overcast
12:55 AM 64.4 °F 64.4 °F 100% 29.87 in 4.0 mi SW 6.9 mph - 0.03 in   Mostly Cloudy
1:15 AM 64.4 °F 64.4 °F 100% 29.88 in 1.8 mi SW 9.2 mph - 0.14 in   Overcast
1:35 AM 64.4 °F 64.4 °F 100% 29.87 in 4.0 mi South 4.6 mph - 0.26 in   Overcast
1:55 AM 64.4 °F 64.4 °F 100% 29.86 in 10.0 mi SSE 5.8 mph - 0.27 in   Overcast
2:35 AM 64.4 °F 64.4 °F 100% 29.81 in 10.0 mi SE 8.1 mph 16.1 mph N/A   Overcast
2:55 AM 64.4 °F 64.4 °F 100% 29.80 in 10.0 mi SE 6.9 mph 18.4 mph N/A   Mostly Cloudy
3:15 AM 64.4 °F 64.4 °F 100% 29.82 in 10.0 mi SSE 9.2 mph - N/A   Mostly Cloudy
3:35 AM 64.4 °F 64.4 °F 100% 29.80 in 10.0 mi SE 10.4 mph 18.4 mph N/A   Overcast
3:55 AM 64.4 °F 64.4 °F 100% 29.81 in 9.0 mi SSE 8.1 mph - 0.02 in   Overcast
4:15 AM 64.4 °F 64.4 °F 100% 29.78 in 10.0 mi SE 6.9 mph - N/A   Overcast
4:35 AM 64.4 °F 64.4 °F 100% 29.78 in 10.0 mi SSE 6.9 mph - N/A   Mostly Cloudy
4:55 AM 64.4 °F 64.4 °F 100% 29.79 in 10.0 mi SSE 9.2 mph - N/A   Mostly Cloudy
5:15 AM 64.4 °F 64.4 °F 100% 29.79 in 10.0 mi SSE 6.9 mph - N/A   Mostly Cloudy
5:35 AM 64.4 °F 64.4 °F 100% 29.81 in 10.0 mi SSW 5.8 mph - N/A   Mostly Cloudy
5:55 AM 64.4 °F 64.4 °F 100% 29.81 in 10.0 mi SSE 6.9 mph - N/A   Mostly Cloudy
6:15 AM 64.4 °F 64.4 °F 100% 29.82 in 10.0 mi SSE 6.9 mph - N/A   Mostly Cloudy
6:35 AM 64.4 °F 64.4 °F 100% 29.82 in 10.0 mi South 9.2 mph - N/A   Mostly Cloudy
6:55 AM 64.4 °F 64.4 °F 100% 29.83 in 10.0 mi South 8.1 mph - N/A   Mostly Cloudy
7:15 AM 64.4 °F 64.4 °F 100% 29.84 in 10.0 mi South 4.6 mph - N/A   Mostly Cloudy
7:35 AM 64.4 °F 64.4 °F 100% 29.84 in 5.0 mi South 5.8 mph - 0.01 in   Mostly Cloudy
7:55 AM 64.4 °F 64.4 °F 100% 29.85 in 0.8 mi SSW 8.1 mph - 0.16 in   Overcast
8:15 AM 64.4 °F 64.4 °F 100% 29.84 in 8.0 mi South 3.5 mph - 0.01 in   Mostly Cloudy
8:35 AM 64.4 °F 64.4 °F 100% 29.83 in 10.0 mi SE 3.5 mph - 0.02 in   Overcast
8:55 AM 66.2 °F 66.2 °F 100% 29.83 in 10.0 mi South 4.6 mph - 0.02 in   Overcast
9:15 AM 66.2 °F 66.2 °F 100% 29.83 in 10.0 mi South 6.9 mph - N/A   Overcast
9:35 AM 68.0 °F 68.0 °F 100% 29.83 in 8.0 mi South 9.2 mph - N/A   Overcast
9:55 AM 68.0 °F 68.0 °F 100% 29.84 in 6.0 mi South 11.5 mph 24.2 mph 0.01 in   Overcast
10:15 AM 68.0 °F 68.0 °F 100% 29.84 in 10.0 mi SSW 10.4 mph 21.9 mph N/A   Overcast
10:35 AM 69.8 °F 69.8 °F 100% 29.84 in 10.0 mi South 10.4 mph 20.7 mph N/A   Overcast
10:55 AM 69.8 °F 69.8 °F 100% 29.85 in 10.0 mi South 6.9 mph 21.9 mph N/A   Overcast
11:15 AM 71.6 °F 71.6 °F 100% 29.85 in 10.0 mi South 9.2 mph 20.7 mph N/A   Overcast
11:35 AM 71.6 °F 71.6 °F 100% 29.85 in 10.0 mi South 9.2 mph 17.3 mph N/A   Overcast
11:55 AM 71.6 °F 71.6 °F 100% 29.85 in 10.0 mi South 10.4 mph 21.9 mph N/A   Overcast
12:15 PM 71.6 °F 71.6 °F 100% 29.85 in 10.0 mi SSW 12.7 mph 17.3 mph N/A   Overcast
12:35 PM 71.6 °F 71.6 °F 100% 29.86 in 10.0 mi South 11.5 mph 19.6 mph N/A   Overcast
12:55 PM 73.4 °F 71.6 °F 94% 29.85 in 10.0 mi SSW 15.0 mph 19.6 mph N/A   Overcast
1:15 PM 73.4 °F 71.6 °F 94% 29.85 in 10.0 mi South 10.4 mph 23.0 mph N/A   Overcast
1:35 PM 73.4 °F 71.6 °F 94% 29.86 in 10.0 mi SSW 11.5 mph 18.4 mph N/A   Overcast
1:55 PM 73.4 °F 73.4 °F 100% 29.86 in 10.0 mi SW 10.4 mph 17.3 mph N/A   Overcast
2:15 PM 77.0 °F 71.6 °F 83% 29.86 in 10.0 mi SSW 12.7 mph 19.6 mph N/A   Scattered Clouds
2:35 PM 77.0 °F 71.6 °F 83% 29.85 in 10.0 mi SSW 13.8 mph 20.7 mph N/A   Mostly Cloudy
2:55 PM 75.2 °F 69.8 °F 83% 29.86 in 10.0 mi SSW 12.7 mph 18.4 mph N/A   Mostly Cloudy
3:15 PM 77.0 °F 71.6 °F 83% 29.86 in 10.0 mi SW 15.0 mph 21.9 mph N/A   Mostly Cloudy
3:35 PM 77.0 °F 69.8 °F 78% 29.86 in 10.0 mi SW 16.1 mph 24.2 mph N/A   Scattered Clouds
3:55 PM 78.8 °F 69.8 °F 74% 29.85 in 10.0 mi SSW 10.4 mph 24.2 mph N/A   Scattered Clouds
4:15 PM 77.0 °F 68.0 °F 74% 29.85 in 10.0 mi SW 16.1 mph 24.2 mph N/A   Mostly Cloudy
4:35 PM 77.0 °F 68.0 °F 74% 29.85 in 10.0 mi SSW 15.0 mph 26.5 mph N/A   Mostly Cloudy
4:55 PM 78.8 °F 69.8 °F 74% 29.85 in 10.0 mi SSW 11.5 mph 17.3 mph N/A   Mostly Cloudy
5:15 PM 77.0 °F 68.0 °F 74% 29.84 in 10.0 mi SSW 16.1 mph 21.9 mph N/A   Scattered Clouds
5:35 PM 77.0 °F 68.0 °F 74% 29.84 in 10.0 mi SW 16.1 mph 20.7 mph N/A   Partly Cloudy
5:55 PM 78.8 °F 68.0 °F 69% 29.84 in 10.0 mi SSW 17.3 mph 21.9 mph N/A   Partly Cloudy
6:15 PM 78.8 °F 68.0 °F 69% 29.84 in 10.0 mi SW 13.8 mph 19.6 mph N/A   Clear
6:35 PM 77.0 °F 68.0 °F 74% 29.85 in 10.0 mi SSW 12.7 mph 19.6 mph N/A   Clear
6:55 PM 77.0 °F 68.0 °F 74% 29.85 in 10.0 mi SSW 11.5 mph - N/A   Clear
7:15 PM 77.0 °F 68.0 °F 74% 29.86 in 10.0 mi SSW 10.4 mph - N/A   Clear
7:35 PM 75.2 °F 68.0 °F 78% 29.87 in 10.0 mi SSW 8.1 mph - N/A   Clear
7:55 PM 73.4 °F 68.0 °F 83% 29.87 in 10.0 mi SW 6.9 mph - N/A   Clear
8:15 PM 71.6 °F 68.0 °F 88% 29.88 in 10.0 mi SSW 4.6 mph - N/A   Clear
8:35 PM 71.6 °F 68.0 °F 88% 29.89 in 10.0 mi South 4.6 mph - N/A   Clear
8:55 PM 71.6 °F 68.0 °F 88% 29.89 in 10.0 mi SSW 4.6 mph - N/A   Clear
9:15 PM 71.6 °F 68.0 °F 88% 29.90 in 10.0 mi SW 8.1 mph - N/A   Clear
9:35 PM 71.6 °F 68.0 °F 88% 29.91 in 10.0 mi WSW 8.1 mph - N/A   Scattered Clouds
9:55 PM 71.6 °F 68.0 °F 88% 29.92 in 10.0 mi SW 8.1 mph - N/A   Scattered Clouds
10:15 PM 71.6 °F 68.0 °F 88% 29.93 in 10.0 mi WSW 6.9 mph - N/A   Mostly Cloudy
10:35 PM 69.8 °F 68.0 °F 94% 29.94 in 10.0 mi WSW 6.9 mph - N/A   Scattered Clouds
10:55 PM 69.8 °F 66.2 °F 88% 29.94 in 10.0 mi WSW 5.8 mph - N/A   Scattered Clouds
11:15 PM 68.0 °F 68.0 °F 100% 29.95 in 10.0 mi West 5.8 mph - N/A   Mostly Cloudy
11:35 PM 68.0 °F 66.2 °F 94% 29.95 in 10.0 mi WSW 5.8 mph - N/A   Partly Cloudy
11:55 PM 68.0 °F 64.4 °F 88% 29.96 in 10.0 mi West 5.8 mph - N/A   Clear